Regional Weather Roundup
Issued by NWS

Home | Current Version | Previous Version | Text Only | Print | Product List | Glossary On
Versions: 1 2 3 4 5 6 7 8 9 10 11 12 13 14 15 16 17 18 19 20 21 22 23 24 25 26 27 28 29 30 31 32 33 34 35 36 37 38 39 40 41 42 43 44 45 46 47 48 49 50
000
ASUS46 KPQR 310810
RWROR

OREGON REGIONAL WEATHER ROUNDUP
NATIONAL WEATHER SERVICE PORTLAND OR
100 AM PDT SUN JUL 31 2016

NOTE: "FAIR" INDICATES FEW OR NO CLOUDS BELOW 12,000 FEET WITH
NO SIGNIFICANT WEATHER AND/OR OBSTRUCTIONS TO VISIBILITY.

ORZ001>013-310900-
NORTHWEST OREGON


CITY           SKY/WX    TMP DP  RH WIND       PRES   REMARKS
ASTORIA        CLOUDY    60  54  80 NW7       30.04S
NEWPORT        PTCLDY    57  52  82 N7        30.09S
PORTLAND       MOCLDY    60  49  66 VRB7      30.04R
VANCOUVER WA   CLEAR     59  49  69 NW3       30.03S
SCAPPOOSE      MOCLDY    56  49  77 CALM      30.02S
HILLSBORO      MOCLDY    58 N/A N/A N6        30.03S
AURORA         CLEAR     58  48  69 NE6       30.05R
MCMINNVILLE    CLEAR     53  48  83 SW3       30.05R
SALEM          CLEAR     57  49  74 N7        30.03R
CORVALLIS        N/A     57  48  72 NW10      30.04R
EUGENE         CLEAR     56  47  71 N7        30.02R
$$

ORZ021-028-310900-
SOUTHWEST OREGON


CITY           SKY/WX    TMP DP  RH WIND       PRES   REMARKS
NORTH BEND     CLEAR     57  52  82 N17       30.04S
BROOKINGS      CLEAR     55  51  86 CALM      29.87F
ROSEBURG       CLEAR     67  49  52 CALM      29.98R
SEXTON SUMMIT  CLEAR     56  47  71 N14G23    30.02S
MEDFORD        CLEAR     70  37  29 CALM      29.93R
$$

ORZ014>016-041-310900-
COLUMBIA GORGE


CITY           SKY/WX    TMP DP  RH WIND       PRES   REMARKS
TROUTDALE      CLOUDY    60  51  72 CALM      30.03S
HOOD RIVER     CLEAR     61  48  63 NW13G25   29.93R
THE DALLES     CLEAR     66  48  52 NW20      29.87R
$$

ORZ029>031-041-044-049-050-061>064-502-503-505>511-310900-
EASTERN OREGON


CITY           SKY/WX    TMP DP  RH WIND       PRES   REMARKS
REDMOND        CLEAR     57  31  37 CALM      29.98S
BEND           CLEAR     52  36  54 CALM      30.00S
PRINEVILLE     CLEAR     50  36  57 S6        29.99S
KLAMATH FALLS  CLEAR     63  44  50 W8        30.00F
LAKEVIEW       PTCLDY   N/A N/A N/A NW12      30.04S
HERMISTON      CLEAR     70  44  39 SW15G23   29.81R
PENDLETON      CLEAR     64  38  38 E7        29.84R
JOHN DAY       CLEAR     64  25  22 W8        29.97R
MEACHAM        NOT AVBL
LA GRANDE      CLEAR     66  27  22 W8        29.88R
BAKER CITY     CLEAR     55  32  41 CALM      29.90S
BURNS          CLEAR     62  26  25 W13       29.97R
ROME             N/A     67  21  17 SE7       29.91R
ONTARIO        CLEAR     77  25  14 W12       29.79S
$$



USA.gov is the U.S. government's official web portal to all federal, state and local government web resources and services.